GFSMW_250_spd_000.txt.gz
Wind_Speed
13 12 12 13 13 12 11 10 12 14 14 14 15 17 19 19 19 22 23 23 23 25 31 34 36 38 37 37 40 46 43 44 48 49 63 55 33 36 40 41 41 40 39
8 7 8 9 10 10 10 11 12 13 15 16 18 19 21 23 23 22 24 26 26 28 31 36 37 41 43 42 44 47 50 48 52 57 53 65 60 34 36 42 45 44 44
5 6 10 10 9 10 11 11 12 15 18 20 22 25 26 26 28 30 30 30 30 30 32 36 39 42 47 47 46 48 48 53 53 59 57 61 70 59 35 37 44 49 48
12 10 9 12 12 12 12 14 16 19 21 23 25 27 29 31 32 33 36 34 34 33 35 37 39 42 46 49 48 49 49 50 53 60 58 60 70 74 55 34 41 47 52
15 14 14 13 14 15 16 18 21 24 26 25 27 29 31 33 35 36 37 36 36 33 36 37 41 44 44 51 50 50 51 51 53 61 62 56 62 71 75 46 31 42 50
17 15 13 15 18 21 24 26 27 26 28 28 29 31 36 37 37 38 39 39 38 35 38 42 44 48 45 53 49 51 53 49 52 59 64 57 55 70 70 61 42 31 42
18 19 21 22 24 27 29 32 33 33 34 34 34 36 36 37 40 42 42 42 40 38 41 44 45 46 47 53 52 52 52 50 52 59 65 53 51 65 67 72 57 45 36
25 26 27 29 30 33 34 35 37 37 37 38 39 40 42 42 42 42 43 44 43 43 44 47 46 45 50 54 53 54 54 52 52 61 60 50 51 61 70 78 74 54 48
33 34 36 37 36 38 40 40 40 41 40 40 43 44 45 45 46 45 45 46 47 48 47 47 50 54 54 55 55 54 54 52 55 59 57 51 56 61 76 80 82 84 51
39 40 40 41 42 43 44 45 44 45 46 46 48 50 48 49 47 50 50 50 51 52 52 53 57 57 57 56 57 54 55 56 58 63 61 58 64 75 78 81 84 73 53
43 44 44 44 45 46 47 48 48 50 51 51 53 53 52 51 51 54 55 56 58 61 56 56 57 60 57 62 62 59 60 57 62 64 67 59 66 74 79 82 85 78 69
47 46 49 49 49 50 51 50 51 52 53 54 54 53 54 56 55 58 60 58 69 61 56 57 58 59 62 62 65 64 61 62 69 69 68 66 63 85 88 88 90 87 82
49 51 52 51 53 55 54 54 54 54 54 55 55 55 55 55 58 61 67 63 53 50 57 60 62 67 66 64 67 65 65 71 68 68 65 63 76 80 90 91 92 95 90
53 53 54 55 57 58 58 57 59 58 57 57 57 58 59 59 65 64 76 50 49 56 61 65 70 71 66 70 69 69 69 71 68 70 71 66 76 89 95 95 102 105 77
57 58 58 59 60 62 63 63 64 63 63 62 61 62 61 62 62 53 65 59 59 67 64 68 71 74 78 71 68 67 70 72 75 70 64 63 73 102 98 106 107 111 77
63 64 62 63 65 64 65 66 68 66 66 64 66 65 62 55 42 48 69 77 71 73 69 74 83 78 74 71 72 75 74 69 80 73 73 72 89 103 107 109 110 117 76
66 66 66 69 69 68 70 69 69 67 66 63 66 62 58 47 48 51 59 70 76 76 74 83 87 80 73 74 73 78 77 75 75 66 72 92 104 105 107 114 116 105 84
71 71 71 71 72 72 70 67 64 62 61 61 62 61 57 50 50 48 54 62 72 83 87 84 87 85 78 77 79 73 64 65 67 69 84 98 100 105 105 114 119 97 88
73 70 72 70 67 64 65 66 66 67 66 66 67 62 55 51 46 48 58 67 77 82 81 84 90 80 79 75 66 58 62 62 68 81 93 99 108 106 113 115 112 98 96
70 69 68 63 62 66 69 69 71 70 68 67 66 65 66 53 48 58 63 68 75 81 81 82 73 57 58 58 60 57 61 74 91 113 109 107 106 108 114 116 105 104 95
65 66 67 70 69 72 70 70 72 72 70 69 67 64 59 53 48 51 53 61 71 74 75 71 58 37 37 55 63 72 79 94 108 115 113 110 111 113 110 107 102 95 96
71 70 73 73 75 76 75 76 77 77 73 70 63 61 54 51 50 54 58 58 59 62 68 71 57 42 54 70 79 85 93 100 113 115 108 112 114 111 112 111 99 95 87
75 74 75 79 80 82 82 79 78 75 72 69 64 56 51 51 52 58 57 58 63 69 69 70 67 65 70 72 82 93 101 104 112 111 111 111 113 112 114 105 97 89 75
78 79 79 80 81 80 81 78 75 74 67 68 51 53 44 50 50 63 63 63 66 65 71 75 79 89 92 91 89 98 104 107 107 108 106 109 111 112 101 99 91 81 68
83 82 80 78 80 80 78 76 73 68 68 67 58 46 54 56 58 65 67 70 77 83 86 88 88 90 87 93 97 100 104 101 101 105 106 109 104 99 99 95 84 73 59
78 79 77 77 79 72 72 74 71 71 68 68 56 55 70 68 76 77 80 78 77 76 83 87 90 96 97 98 94 96 94 97 101 101 96 95 100 97 93 83 76 62 50

GFSMW_250_spd_003.txt.gz
Wind_Speed
12 12 11 10 9 8 7 7 8 9 10 10 11 14 17 20 20 19 19 22 23 25 24 24 29 32 37 37 40 42 39 39 39 42 45 49 55 49 57 58 23 25 36
6 6 6 7 6 5 4 4 6 8 11 13 14 16 17 19 21 23 23 24 25 26 29 28 29 31 37 37 37 44 43 42 41 39 43 49 55 50 50 60 60 25 27
3 5 5 5 6 6 6 6 7 10 14 17 19 19 20 22 25 28 29 29 28 27 28 30 30 33 38 40 39 42 48 46 44 40 39 46 50 51 52 54 59 58 39
10 6 6 6 9 8 8 9 12 16 19 21 22 24 26 27 29 31 33 33 33 31 30 31 32 36 39 39 38 43 47 48 48 44 42 44 49 55 50 58 58 61 62
11 10 11 9 10 9 12 13 16 20 22 24 26 28 30 31 32 33 35 36 35 32 32 33 35 38 40 42 38 43 47 49 48 48 46 46 51 52 45 49 56 62 61
14 11 11 12 15 17 19 20 21 24 27 29 30 33 33 33 35 35 37 37 35 34 33 34 36 39 41 43 45 46 46 49 48 48 46 47 54 57 53 58 52 60 62
17 16 18 21 22 24 25 27 27 29 31 33 34 36 36 36 38 41 40 39 37 37 38 37 38 42 48 49 50 47 45 44 49 47 47 48 54 60 60 57 62 58 63
24 24 25 26 29 30 31 32 32 33 34 36 37 38 41 42 42 39 40 42 42 42 42 41 44 52 53 45 47 44 42 46 44 50 48 47 56 61 60 54 58 62 66
29 30 30 32 34 36 36 36 36 38 37 39 40 42 44 44 43 43 43 44 43 42 46 50 53 50 47 44 42 39 44 46 46 49 53 53 58 61 61 57 61 59 60
34 35 34 36 38 40 40 39 41 42 41 41 42 43 44 46 47 47 47 48 49 48 50 51 50 47 46 43 44 44 48 47 47 52 61 61 61 62 63 60 67 60 69
40 40 39 41 42 42 44 44 43 43 43 43 44 45 47 49 50 51 51 53 57 50 52 47 41 44 45 48 53 54 51 49 56 58 69 67 66 60 66 65 70 66 70
44 42 43 45 45 45 46 46 46 46 44 44 47 48 51 51 54 53 55 55 52 44 58 53 52 53 48 60 61 58 56 56 66 68 69 65 68 68 65 67 65 68 72
47 46 49 48 48 48 47 48 49 49 49 50 52 54 55 54 52 55 53 52 50 45 61 65 58 57 63 70 68 63 64 72 75 74 72 69 73 69 78 64 68 73 81
53 52 51 52 51 52 50 50 53 54 54 54 55 56 54 52 51 51 52 52 55 53 56 63 60 55 68 75 73 76 74 77 74 74 77 71 73 72 65 62 73 86 87
57 56 55 54 54 54 55 56 59 59 59 58 57 55 52 52 49 46 49 46 45 50 62 67 67 67 70 70 76 75 78 79 77 78 70 79 79 79 67 63 81 91 99
61 61 57 56 56 57 60 62 63 63 64 62 59 56 52 49 50 49 41 48 47 49 70 73 75 76 80 85 89 84 88 88 87 84 79 85 89 83 70 74 90 98 103
64 63 61 60 60 62 67 69 69 67 65 61 58 54 52 55 55 55 51 50 53 52 61 73 78 78 79 80 82 83 87 87 89 83 89 90 83 80 80 86 99 106 107
69 68 67 64 64 68 72 72 71 69 65 60 57 56 56 59 60 58 55 56 61 68 73 79 80 80 80 83 87 88 88 90 84 86 74 76 81 86 85 96 102 104 107
76 74 72 68 70 71 73 73 71 67 60 57 58 60 59 62 66 63 67 68 68 65 71 77 77 83 86 84 85 84 77 77 75 74 74 79 83 91 97 98 98 106 112
78 75 72 71 71 71 72 72 69 64 61 62 64 66 67 69 69 72 70 68 62 64 70 76 78 80 80 81 82 78 69 69 72 75 83 90 90 93 97 100 106 116 115
77 77 75 72 72 70 68 67 66 65 65 67 68 73 74 73 72 72 74 71 68 68 68 72 77 76 78 81 80 77 71 72 73 79 87 90 95 99 103 106 111 113 112
77 77 76 72 70 67 66 65 66 68 70 73 75 76 74 76 74 70 68 68 70 65 66 68 70 68 70 75 76 79 80 80 86 91 94 96 94 94 102 103 103 101 101
75 76 75 73 72 69 68 69 70 72 74 75 76 76 76 72 72 72 72 70 65 59 57 60 62 73 75 76 77 80 77 81 85 90 93 97 95 94 98 96 92 94 93
77 76 77 76 74 72 71 73 75 74 76 75 71 71 66 70 71 69 66 63 62 63 69 73 73 74 72 70 70 76 81 85 87 91 94 91 88 85 87 93 92 95 89
76 75 78 79 75 74 72 73 76 76 72 70 65 66 71 75 69 67 72 70 69 73 78 77 74 73 70 68 74 79 82 87 93 89 83 84 89 96 97 99 91 81 76
77 78 80 78 75 74 75 76 75 73 70 69 71 71 70 66 64 68 72 76 77 83 82 76 77 77 74 77 81 84 86 89 83 83 88 94 99 102 100 83 77 72 66

GFSMW_250_spd_006.txt.gz
Wind_Speed
15 13 12 11 9 7 6 4 5 6 7 8 9 11 14 15 17 18 20 21 22 23 24 25 24 23 26 29 32 36 32 38 36 35 36 38 37 41 42 46 47 56 40
7 7 6 6 6 4 2 2 2 2 5 9 13 15 16 18 19 22 23 24 25 25 25 26 27 27 27 30 32 36 34 40 39 35 34 38 36 38 44 46 44 41 39
5 1 2 4 3 2 2 3 3 5 8 12 14 16 19 21 23 24 26 27 27 26 26 27 27 28 28 29 31 34 35 39 36 35 35 35 40 37 42 47 47 59 51
11 8 7 6 6 6 6 6 8 9 12 15 15 18 21 24 26 27 28 31 29 28 28 27 27 27 28 30 31 38 37 36 34 33 34 33 39 47 42 48 49 53 56
16 14 11 10 10 9 10 10 12 15 18 19 20 21 24 26 28 30 30 30 30 30 30 31 30 30 30 33 38 43 34 35 37 34 34 36 36 44 54 48 52 54 53
18 15 14 12 12 12 15 17 18 20 22 24 25 26 28 29 31 32 32 32 34 34 35 35 34 36 36 41 43 37 37 35 35 35 36 36 34 48 49 42 45 54 56
20 16 16 16 16 18 21 23 25 26 29 29 30 31 31 30 32 34 35 37 40 40 39 38 40 41 42 45 38 36 42 39 39 42 47 42 41 51 45 48 49 52 57
24 22 20 20 21 24 27 28 29 30 31 33 34 34 33 33 34 35 38 40 42 44 42 42 42 37 36 39 39 44 48 47 40 46 51 48 46 45 48 54 55 59 49
29 29 28 27 29 30 32 33 34 35 34 35 35 34 34 35 37 39 40 42 44 44 45 41 39 37 39 38 43 49 50 40 42 62 59 49 49 53 52 58 63 67 54
33 33 32 31 32 33 35 36 38 39 38 37 36 35 36 37 40 43 45 46 47 48 40 40 39 34 42 47 45 47 47 47 58 59 56 56 58 62 62 60 59 61 58
38 37 35 35 38 39 40 41 41 41 40 39 38 36 38 41 44 47 48 49 49 45 42 41 45 45 47 50 51 51 52 56 60 62 58 58 64 70 60 61 61 63 62
44 43 41 40 44 44 44 43 41 42 43 43 40 40 42 44 48 50 53 49 47 46 44 41 43 46 53 49 48 57 57 60 65 62 63 69 71 63 63 66 58 64 61
47 47 44 44 46 46 44 43 44 46 47 46 44 44 46 50 51 54 54 50 48 44 42 43 53 59 54 53 56 61 65 64 66 70 70 70 70 67 64 65 70 62 58
51 50 48 48 47 46 46 46 47 50 49 50 49 49 52 55 54 55 48 42 47 48 47 47 51 56 61 65 66 67 68 70 72 70 71 69 73 74 75 68 62 62 62
55 55 55 52 49 48 49 49 53 53 52 54 55 57 57 58 58 51 45 42 46 49 49 56 54 55 62 65 68 71 72 74 79 71 72 76 80 76 72 75 69 70 67
62 61 59 55 54 52 52 53 57 56 57 59 61 62 62 60 54 53 48 48 47 50 54 56 57 61 62 69 72 73 73 79 82 82 82 81 78 77 72 76 71 71 73
66 64 62 58 57 54 55 61 62 61 63 65 66 64 62 59 55 53 51 52 54 55 56 63 63 65 70 71 72 78 82 84 80 80 80 75 70 70 72 73 72 74 79
68 67 65 61 59 57 61 64 67 66 69 70 68 66 65 59 55 52 54 57 61 64 68 68 69 69 69 71 73 74 77 81 81 78 77 73 74 69 72 75 79 82 80
72 71 68 64 62 61 66 69 71 71 72 71 69 68 65 62 59 59 61 63 68 69 70 71 74 73 66 71 73 75 77 76 74 68 67 67 68 71 74 76 79 81 88
75 74 71 69 66 69 72 74 72 73 73 74 72 68 64 64 64 64 67 70 72 72 72 73 69 68 69 71 75 70 63 66 66 70 70 72 76 75 77 79 80 86 89
78 78 76 75 74 75 76 74 74 74 72 72 70 70 67 64 66 71 73 75 75 73 71 71 71 71 72 71 69 65 65 68 70 73 71 67 71 70 75 80 84 87 87
82 81 81 80 79 77 77 79 76 73 71 70 71 71 71 71 73 74 75 75 73 71 70 72 72 73 70 68 66 70 75 77 78 73 70 69 73 77 78 79 80 74 76
85 83 83 82 79 81 79 80 75 72 69 69 71 72 72 75 77 77 76 76 75 74 75 75 67 67 71 74 77 78 73 74 72 74 74 75 77 78 77 74 74 80 81
83 83 83 80 80 80 77 78 76 73 71 71 72 73 74 75 75 74 74 74 75 76 74 70 73 73 76 75 76 76 80 78 77 77 77 78 77 77 77 79 82 84 87
79 81 79 78 79 77 77 79 75 74 73 73 74 75 74 73 72 73 73 74 77 79 78 76 75 77 79 80 83 85 87 84 80 79 77 77 79 81 81 84 86 86 82
77 78 79 76 77 78 79 78 75 73 73 74 75 75 71 74 71 72 74 78 81 80 78 78 78 79 82 85 87 93 89 80 77 75 76 78 82 85 87 89 84 74 67

GFSMW_250_spd_009.txt.gz
Wind_Speed
16 14 15 14 13 11 9 7 5 3 3 5 8 10 12 15 18 20 21 22 22 22 23 24 25 24 22 23 22 23 26 31 29 23 28 26 31 35 41 47 47 38 42
14 12 10 10 9 8 7 6 4 3 1 6 10 13 13 15 18 21 22 22 23 22 24 24 24 23 23 23 23 26 31 36 27 26 23 29 28 30 40 44 48 44 46
11 9 9 9 9 8 7 6 6 5 5 8 13 14 15 17 19 21 22 23 23 23 23 25 26 26 25 26 26 30 33 35 30 27 28 29 34 32 28 45 41 45 49
12 9 8 9 8 8 8 8 7 7 8 12 14 16 19 22 23 23 24 23 24 25 27 27 27 28 29 27 29 32 35 26 32 29 32 29 34 32 35 37 38 44 48
14 15 13 12 12 11 10 9 9 10 13 15 16 19 22 25 27 26 25 25 26 27 29 30 32 31 32 31 31 28 30 24 30 35 35 35 36 46 36 36 32 40 44
21 21 20 17 16 15 14 15 14 15 17 18 20 22 25 27 27 26 27 30 31 33 34 35 34 36 36 36 31 29 30 30 34 35 40 38 40 47 40 33 39 40 49
26 25 23 23 20 19 19 19 19 21 21 23 24 26 28 28 28 29 31 34 35 38 40 41 40 38 31 32 31 35 35 38 38 41 44 38 40 51 48 44 42 45 43
26 27 27 27 25 23 24 24 24 26 27 28 28 30 30 29 30 31 33 37 38 41 43 42 40 33 38 38 32 33 40 43 43 48 47 45 52 51 52 45 43 52 46
28 29 29 28 27 28 29 30 30 30 30 32 33 32 30 31 32 33 35 39 42 44 43 45 42 39 39 37 37 42 44 49 51 51 50 51 51 54 49 51 56 49 45
35 34 34 33 33 34 34 35 34 34 34 35 34 33 33 33 34 36 37 42 45 47 48 47 42 40 42 43 44 50 51 53 53 53 55 56 54 53 54 58 57 50 46
41 40 40 38 38 38 38 37 37 37 37 37 35 36 36 36 38 40 41 46 51 53 54 47 44 42 41 45 46 47 50 54 55 59 59 61 58 60 65 60 50 49 51
46 44 44 42 41 43 42 41 40 39 40 40 40 41 39 40 42 42 44 49 53 57 54 48 44 46 46 46 48 51 52 53 57 61 64 64 66 61 62 54 54 55 53
48 47 46 46 45 46 44 42 43 43 43 44 45 45 44 44 44 46 49 53 55 59 56 49 47 48 51 50 50 56 58 62 63 64 67 62 59 62 60 62 57 59 61
52 50 48 47 47 47 47 44 45 47 49 50 49 48 49 48 49 51 54 54 57 56 56 51 50 51 52 54 56 63 63 64 67 69 71 73 77 82 76 65 64 69 66
56 53 53 51 51 47 51 48 50 53 54 54 52 52 54 53 54 56 57 57 56 56 56 52 53 54 58 60 66 68 68 68 68 70 73 79 82 78 74 70 66 61 60
61 59 57 55 54 52 54 54 56 59 57 55 54 56 59 59 58 60 61 60 58 55 55 53 55 58 61 65 66 70 72 69 70 70 71 72 71 72 73 67 66 67 68
66 64 63 60 60 59 58 57 61 62 60 57 60 63 62 62 64 64 63 59 59 56 55 54 56 59 63 69 72 72 70 68 68 69 69 70 72 71 71 71 71 72 64
71 64 66 65 64 63 61 60 65 64 64 64 66 67 67 66 66 66 65 64 62 61 60 57 58 61 67 70 73 73 70 71 67 65 69 69 66 67 71 68 66 66 67
76 72 73 72 70 68 65 64 68 68 68 71 71 71 72 70 71 70 68 67 67 65 62 63 65 67 70 72 73 72 71 66 67 73 71 71 70 73 76 75 72 68 68
81 76 80 77 75 71 69 68 71 72 74 75 75 75 74 75 73 72 72 71 69 69 70 70 72 72 71 74 75 72 73 65 69 71 69 68 81 80 71 69 70 72 74
86 84 85 82 80 77 74 74 75 76 78 78 77 77 75 76 76 75 74 73 71 71 73 74 76 74 74 74 73 69 71 70 69 72 77 78 75 74 75 74 73 74 76
91 90 87 86 84 82 79 78 79 80 81 81 79 78 77 76 76 74 74 73 74 76 76 76 77 77 76 73 73 73 70 74 82 88 86 77 83 81 76 74 72 68 67
93 90 86 89 86 84 82 81 83 84 83 82 82 80 78 75 76 76 74 74 76 76 76 79 81 79 78 77 72 71 87 88 88 86 84 82 81 74 69 69 69 70 73
91 87 86 87 87 84 85 85 85 84 82 83 82 79 76 75 74 76 78 78 77 76 79 82 82 80 80 81 86 89 92 90 89 85 84 80 75 72 70 70 76 77 79
89 88 86 86 83 81 81 81 81 81 81 80 78 77 75 74 78 79 79 79 78 81 81 82 81 81 81 87 91 93 91 87 84 82 74 74 75 75 77 78 81 82 83
89 88 87 85 82 81 81 80 78 78 78 78 79 78 77 78 80 78 78 80 80 81 82 83 84 85 87 91 90 87 82 82 79 78 77 78 80 82 86 86 86 82 78

GFSMW_250_spd_012.txt.gz
Wind_Speed
16 15 15 15 15 13 10 7 6 4 4 5 7 9 10 13 15 17 17 19 20 20 19 19 20 20 21 21 20 21 23 24 26 20 24 25 23 31 37 36 31 29 28
18 17 16 14 12 10 9 8 7 5 1 3 7 9 10 14 17 19 20 20 18 18 19 22 23 24 24 23 24 24 26 28 25 17 22 25 27 28 35 41 35 29 27
17 16 16 15 13 11 9 7 6 5 5 6 9 13 12 15 17 20 20 21 20 22 24 24 24 25 25 26 27 28 28 25 22 22 24 26 22 26 29 34 41 39 33
12 10 13 14 13 12 10 9 8 7 7 9 11 12 15 18 20 20 22 22 23 25 27 29 30 30 30 31 29 29 25 24 27 28 30 30 32 29 28 35 40 42 39
16 15 15 13 13 13 12 11 9 9 11 12 14 15 16 20 22 21 22 24 26 29 30 33 35 35 33 34 28 30 31 28 28 30 35 30 37 35 36 37 43 40 37
24 21 18 16 15 15 14 13 13 12 14 15 16 18 20 22 23 23 24 27 29 32 35 38 40 42 41 35 31 33 34 29 32 34 35 39 40 41 41 39 38 38 35
30 28 24 22 20 18 18 18 17 16 19 19 18 21 23 23 24 25 27 28 32 35 37 40 44 45 46 42 39 37 34 37 38 42 41 42 41 43 46 46 43 39 37
34 31 30 27 24 22 20 21 21 22 23 23 23 23 25 26 26 27 29 31 34 37 40 41 45 49 48 44 41 41 38 40 41 41 43 43 44 46 48 48 48 42 43
31 33 32 28 27 26 25 26 26 27 28 28 27 26 27 28 29 29 31 33 37 40 43 46 46 48 46 42 40 42 44 45 43 43 46 47 47 49 49 51 53 54 50
36 35 35 32 31 29 29 29 30 31 31 31 32 30 31 33 32 32 33 35 38 42 45 48 52 51 50 46 39 40 44 45 45 47 52 53 52 51 52 53 55 55 52
39 40 39 37 36 35 34 34 34 34 33 34 35 34 34 36 36 36 37 38 42 45 50 52 54 52 50 49 43 44 47 49 48 53 58 59 59 58 58 62 63 54 61
47 45 43 41 38 40 39 37 37 38 37 37 38 38 39 40 40 41 42 43 46 48 51 56 57 55 54 52 50 49 48 53 54 60 62 62 61 61 61 64 68 65 69
51 47 47 42 43 44 42 42 42 41 40 40 41 42 43 45 45 45 46 47 49 52 55 58 59 57 55 54 54 54 56 58 57 63 66 65 65 63 59 60 59 63 62
57 49 51 46 49 49 47 46 44 43 44 45 46 46 47 49 50 50 50 50 52 54 57 61 62 58 58 57 57 55 58 60 63 65 65 66 65 66 64 62 60 59 60
65 56 55 53 51 52 52 49 49 47 49 51 52 49 51 53 55 54 54 53 53 56 58 62 65 62 58 58 58 56 60 65 67 69 68 68 65 65 62 59 61 64 63
66 62 61 56 58 56 56 55 53 54 54 56 57 54 57 59 59 58 57 57 57 58 59 63 64 63 61 61 61 60 61 66 69 69 70 67 66 68 65 61 65 66 68
71 65 64 64 63 61 62 61 59 59 60 61 61 59 62 64 64 61 59 59 60 61 64 65 65 64 66 64 63 63 67 71 69 69 68 66 65 64 61 65 68 69 69
77 70 69 68 66 67 64 64 63 64 66 66 66 65 67 68 68 64 62 64 66 66 67 66 66 67 67 64 64 69 71 68 68 71 68 67 66 66 63 70 69 73 76
75 77 81 74 72 68 71 69 67 67 70 72 69 70 69 69 69 69 67 69 71 71 71 71 70 70 70 65 72 74 70 74 76 73 63 61 71 71 65 68 84 86 86
87 81 93 84 69 76 76 73 72 71 76 76 75 74 75 73 72 73 73 74 76 76 75 75 74 73 72 74 78 75 76 76 77 66 70 69 69 73 78 88 89 84 80
92 90 98 87 78 79 79 80 78 76 78 79 79 81 80 79 78 79 79 80 79 79 79 77 76 76 77 76 75 75 78 80 75 79 72 74 78 88 91 89 82 79 74
94 92 102 92 85 84 82 82 81 79 80 82 83 84 85 84 82 83 84 83 82 81 79 78 79 78 77 77 78 78 82 82 80 78 79 82 89 90 84 82 79 76 75
100 99 97 95 89 86 85 85 83 83 82 84 86 88 89 87 86 86 87 84 81 80 76 75 78 79 79 81 82 83 82 81 81 82 85 88 88 84 81 79 80 79 81
102 105 98 95 91 88 89 87 87 87 86 87 89 89 88 87 87 84 83 81 79 76 75 76 78 81 83 83 82 82 82 83 83 87 92 89 86 84 82 83 83 84 86
97 99 98 97 94 91 90 90 88 86 86 88 88 87 86 85 83 82 79 77 79 79 77 78 81 78 81 83 85 81 82 84 87 90 89 87 85 83 84 84 85 86 87
89 92 96 98 95 92 90 87 86 84 83 83 82 83 82 80 78 78 76 79 79 76 78 79 82 84 84 81 79 80 81 86 88 87 84 84 84 86 86 84 86 83 77

GFSMW_250_spd_015.txt.gz
Wind_Speed
18 15 17 16 17 17 15 11 9 7 6 5 5 5 6 9 11 15 16 17 16 16 18 21 24 25 26 24 25 25 25 22 21 14 15 24 25 23 26 27 27 28 29
16 16 18 17 16 13 10 9 7 6 4 1 4 7 7 10 13 16 15 14 17 19 22 24 26 29 29 28 28 28 27 26 24 18 21 20 26 25 26 28 28 32 26
16 16 17 18 17 14 12 10 8 7 5 5 5 7 9 12 15 15 15 16 19 20 25 27 29 31 33 34 34 26 24 25 25 25 26 27 27 27 26 25 29 33 36
17 17 16 15 14 13 12 11 10 7 8 8 7 10 12 13 15 16 17 17 19 24 27 28 32 36 39 40 39 33 28 27 25 22 21 24 25 30 32 32 30 28 32
15 13 11 13 14 13 12 12 11 11 11 10 9 11 13 15 16 17 19 20 22 24 28 31 34 37 41 43 42 38 31 29 30 29 29 29 29 30 29 32 35 35 35
19 17 15 12 12 12 12 12 12 14 14 12 13 15 16 17 19 19 21 22 25 26 29 32 35 38 42 44 45 42 37 29 29 31 32 31 29 32 34 35 37 34 37
24 25 25 18 15 14 15 15 14 16 17 17 16 19 20 20 21 21 22 25 28 30 31 34 35 39 41 43 43 43 41 36 31 33 31 34 35 40 43 42 37 37 36
31 31 31 27 24 22 20 20 18 17 18 22 23 23 24 23 24 25 23 25 27 33 34 36 36 39 42 45 44 42 42 39 37 37 39 39 41 44 46 46 42 37 36
35 33 35 36 32 28 26 25 22 22 22 25 26 27 28 27 26 26 26 29 29 33 37 38 39 41 43 46 47 43 42 39 37 41 44 46 47 48 48 47 47 49 47
36 37 34 36 34 31 28 28 27 26 25 29 30 30 30 31 29 29 29 31 34 35 39 41 43 46 46 48 49 47 43 43 43 45 43 45 47 49 48 51 54 50 51
42 41 39 37 33 31 30 31 31 31 31 33 33 33 34 34 33 33 33 35 38 40 41 44 46 48 50 50 52 51 49 47 46 46 48 50 51 51 53 52 53 46 48
46 47 42 41 37 37 36 35 35 36 37 37 37 37 37 37 36 37 38 39 41 43 46 46 48 50 52 53 54 54 54 54 54 53 51 54 58 57 56 54 52 50 55
54 47 46 44 43 43 41 39 39 40 40 42 42 42 42 41 40 42 44 44 44 45 47 50 52 54 55 58 60 59 58 56 55 59 58 59 63 59 61 59 61 61 57
60 53 50 46 48 46 47 44 43 43 44 47 47 48 47 45 45 47 49 49 50 49 50 51 52 54 57 60 63 64 60 58 60 62 66 68 63 61 65 64 64 62 57
67 61 51 51 50 53 50 50 48 47 49 51 52 53 52 50 51 52 54 54 53 53 54 55 54 55 58 62 65 63 61 61 64 67 67 70 64 64 67 66 68 63 61
71 68 61 57 55 55 55 55 53 51 52 55 57 58 58 55 55 58 58 57 54 55 58 58 58 60 60 64 66 66 63 66 69 70 71 67 69 67 66 68 68 65 60
81 73 68 62 61 60 61 61 60 57 56 60 62 63 64 61 61 62 61 60 60 61 62 63 63 63 64 61 65 67 66 67 72 74 73 70 67 71 70 70 64 61 65
84 80 76 68 62 64 64 65 65 64 63 64 68 69 69 67 66 66 64 63 66 66 67 68 67 67 68 68 69 69 66 71 74 75 74 73 73 72 70 65 57 62 79
90 84 87 76 73 72 67 65 68 69 69 69 71 74 74 73 70 70 67 68 69 71 74 63 70 73 74 74 73 73 73 75 75 75 74 74 74 73 71 73 72 75 76
92 88 96 82 82 76 71 72 73 72 73 74 76 77 76 76 75 75 72 71 70 73 70 74 79 78 77 76 77 79 78 77 77 75 78 76 76 75 75 75 78 81 84
92 93 95 95 89 82 75 79 77 76 79 79 77 79 79 78 78 77 77 74 73 75 79 82 82 82 83 79 79 76 77 79 75 79 81 79 76 78 77 78 79 84 83
82 92 96 98 94 88 85 83 81 82 84 82 81 81 83 83 82 81 79 79 78 82 84 86 87 86 83 78 78 79 79 75 79 80 79 77 77 77 78 80 83 82 81
73 79 87 95 94 91 90 92 89 87 87 88 87 87 86 87 86 82 81 82 85 87 87 88 87 83 79 80 80 79 77 80 80 79 79 78 77 79 80 82 83 84 86
64 68 79 84 85 90 92 96 97 93 90 89 90 91 91 90 89 86 85 88 88 88 88 84 80 81 80 77 79 79 80 80 80 80 78 78 77 80 80 82 84 88 91
46 49 57 69 76 79 84 91 95 94 93 93 90 91 92 91 91 90 88 87 85 84 81 81 82 81 79 78 76 79 77 81 80 78 76 77 80 81 84 88 91 92 94
37 33 36 47 58 66 74 77 85 92 93 89 89 89 90 88 87 85 82 80 82 80 79 79 79 77 72 71 74 75 76 79 77 77 80 82 84 85 87 92 95 98 89

GFSMW_250_spd_021.txt.gz
Wind_Speed
13 17 24 29 28 25 22 19 16 14 12 10 7 4 2 5 8 11 11 11 12 13 16 20 25 28 31 33 34 33 30 27 23 19 20 22 23 23 21 21 21 22 25
18 21 25 23 25 25 24 19 16 15 12 9 5 1 2 5 9 10 11 12 11 13 17 22 26 28 30 31 33 34 33 32 30 26 22 22 23 25 26 28 31 32 32
23 22 21 22 23 22 22 17 15 14 12 10 7 2 4 6 9 11 11 9 11 15 18 21 25 28 30 33 34 35 34 31 31 31 31 28 25 24 28 28 31 32 36
21 17 18 17 18 19 17 13 12 13 14 13 10 5 4 5 9 11 11 11 12 14 17 19 22 25 29 32 33 34 32 31 32 32 32 31 30 29 27 30 31 32 36
18 19 21 19 16 17 15 12 12 13 13 13 11 8 7 7 10 12 14 14 15 16 17 20 22 26 30 31 32 33 33 35 35 33 32 31 31 29 28 31 33 36 37
20 20 23 25 23 20 16 15 15 16 16 15 14 12 10 10 11 13 15 16 17 18 19 20 24 27 29 31 32 35 35 35 34 33 34 33 29 30 30 33 37 38 36
22 22 21 20 22 21 18 15 16 16 16 18 17 16 15 14 13 14 15 18 18 19 20 22 24 27 29 31 33 34 34 35 34 33 33 33 30 32 34 37 39 37 34
27 28 26 24 22 20 20 18 16 15 15 17 19 19 18 19 17 15 17 20 19 22 22 24 25 27 29 31 33 35 35 35 36 36 37 35 31 30 32 39 43 44 45
32 33 30 31 28 26 22 21 22 21 20 19 21 24 23 21 22 19 20 22 23 23 24 27 27 29 31 33 35 36 38 39 40 39 39 37 36 37 38 41 45 44 49
35 38 38 37 32 29 27 28 29 29 28 27 27 27 28 27 25 24 25 26 26 26 26 29 30 31 34 36 38 39 41 44 44 44 42 40 44 41 42 48 49 50 50
41 40 41 42 38 35 35 36 36 36 36 32 30 33 31 31 30 28 29 30 30 31 30 31 33 34 35 38 43 45 46 48 52 52 44 43 44 43 52 57 56 56 57
46 43 43 43 40 46 40 41 43 39 39 38 32 35 34 34 34 35 33 34 34 36 34 34 37 38 41 44 46 50 53 57 60 59 50 49 51 52 56 61 61 63 64
51 46 43 43 44 44 43 43 41 37 39 40 34 35 38 36 36 39 38 37 39 40 39 39 40 41 44 47 50 53 55 58 64 48 57 58 61 62 64 67 65 65 66
56 55 51 51 49 48 47 46 46 43 40 42 41 38 41 41 42 43 45 43 44 45 44 44 44 45 47 49 52 56 57 60 59 45 56 64 65 67 71 72 70 70 70
62 60 59 60 57 54 54 53 52 51 45 46 48 45 45 47 46 47 48 48 50 49 50 50 50 50 52 53 55 61 60 61 58 49 61 66 65 74 74 74 74 71 77
69 67 65 64 62 63 64 63 57 56 54 51 52 50 49 52 51 51 52 52 54 54 54 56 56 56 58 59 59 64 67 68 58 59 69 68 62 75 75 76 77 75 75
52 66 74 73 70 68 70 67 65 61 57 57 57 58 57 57 57 56 55 57 59 59 59 60 61 61 64 64 65 69 71 69 66 65 61 63 70 73 77 82 77 78 81
44 51 67 79 77 76 74 76 75 68 63 62 62 63 64 64 63 62 61 61 62 62 63 64 65 65 67 68 70 73 71 55 65 63 63 68 76 79 85 81 82 78 81
43 47 52 59 76 81 80 80 80 75 72 69 68 71 72 70 67 67 67 67 67 65 65 65 67 68 70 70 72 67 67 63 65 56 60 75 82 81 81 81 82 81 81
42 44 50 54 60 71 82 87 85 83 78 76 76 75 74 72 72 72 71 72 70 69 70 69 71 70 73 72 73 73 74 76 67 56 74 79 82 82 82 84 84 84 82
50 50 44 48 55 67 75 81 88 87 86 86 84 82 79 78 76 76 75 78 80 80 77 78 78 75 76 75 75 75 73 74 67 74 77 82 87 89 85 84 82 83 81
57 54 50 48 53 60 66 69 75 80 85 87 86 84 82 84 82 81 82 83 84 85 82 81 80 80 80 77 79 77 70 70 75 77 84 85 85 86 82 83 82 80 82
59 58 54 50 53 53 57 56 56 60 65 69 68 70 74 80 83 84 84 88 93 85 83 85 86 86 83 81 77 56 55 66 76 76 78 80 87 84 84 83 78 80 85
62 55 56 57 51 50 51 52 55 53 54 56 54 51 48 52 63 62 63 76 73 65 61 65 70 71 62 60 51 57 60 68 71 72 78 84 81 84 84 75 77 83 86
61 57 54 53 53 61 54 50 50 48 48 49 42 21 28 33 39 41 43 32 29 35 45 55 54 63 56 44 48 61 66 70 74 81 78 78 82 86 75 75 77 86 91
59 54 47 46 55 59 52 44 43 42 43 36 20 20 27 28 34 37 33 27 25 26 30 49 45 67 58 66 67 74 75 85 87 82 76 77 87 79 74 73 80 84 86

GFSMW_250_spd_024.txt.gz
Wind_Speed
14 10 12 20 25 26 25 23 20 16 13 10 8 6 5 7 8 9 9 10 13 17 20 22 25 28 30 32 32 32 32 32 31 30 30 29 27 25 24 23 25 25 27
12 11 15 24 25 25 24 22 20 17 14 10 7 6 5 4 7 8 9 10 12 15 18 20 23 26 27 29 29 30 31 31 31 30 30 30 28 25 24 27 29 29 31
12 16 20 28 25 23 23 19 17 15 13 10 6 4 3 2 5 7 10 11 12 14 14 16 19 22 25 26 26 28 31 32 30 28 28 28 26 27 25 27 30 32 32
14 18 25 25 25 22 20 17 17 15 14 11 7 4 2 1 5 8 10 11 11 12 14 16 18 21 23 23 24 27 30 30 30 30 30 28 25 26 27 28 31 32 33
21 22 25 25 23 21 21 18 16 16 13 11 8 7 5 3 5 8 9 9 11 11 13 14 18 21 21 22 23 23 26 28 30 30 30 29 25 25 24 30 36 39 38
22 20 22 24 27 30 30 23 19 17 14 11 10 10 10 9 8 8 11 11 11 12 13 14 16 18 20 22 25 26 28 29 31 32 33 34 32 29 28 27 35 36 36
21 21 23 22 24 25 26 22 19 17 15 14 13 12 12 12 13 13 14 14 13 13 14 13 16 18 21 23 25 27 28 31 34 34 36 37 36 30 31 28 35 43 43
22 24 25 27 26 26 25 21 17 14 15 15 14 14 14 14 14 15 18 19 18 16 16 18 18 20 22 24 27 30 31 34 36 38 40 42 38 36 38 36 42 49 51
25 25 27 29 29 28 22 18 17 15 15 15 18 17 17 16 18 17 19 21 24 22 20 20 21 23 24 26 29 33 33 35 39 44 44 49 33 34 38 44 43 52 57
30 29 31 32 31 27 24 24 21 20 21 21 22 23 24 22 19 21 21 24 25 27 27 26 26 27 27 28 31 35 36 38 42 45 47 48 35 33 42 46 49 52 59
33 33 32 32 33 31 31 28 28 27 27 27 29 31 32 32 26 22 23 27 29 28 31 33 32 32 32 33 36 39 40 41 44 48 52 51 49 46 49 55 54 56 64
38 37 35 33 33 37 38 38 37 36 35 36 37 37 37 35 34 27 27 31 33 33 34 36 38 38 37 38 41 43 45 46 49 52 58 59 52 45 49 60 53 58 67
45 43 41 38 39 40 42 41 42 47 45 41 41 38 37 35 35 32 31 33 36 38 37 38 40 41 41 42 45 47 49 50 53 55 58 61 59 54 56 58 56 63 70
49 48 46 44 46 45 45 45 46 44 42 43 45 42 38 36 37 38 38 38 38 40 41 41 43 46 46 46 50 51 52 54 53 57 57 61 53 52 58 63 60 66 72
55 54 53 52 53 52 52 52 51 49 45 43 45 47 45 44 41 42 43 42 43 44 45 45 47 49 50 50 52 53 55 55 58 59 61 58 57 46 66 65 62 67 75
50 59 60 60 60 59 60 59 58 57 54 53 51 50 50 49 50 48 48 49 48 48 49 51 51 53 56 55 54 56 58 59 61 64 65 63 53 53 67 56 62 68 80
31 37 51 66 67 67 66 66 68 66 61 60 58 58 57 59 60 57 54 55 54 54 55 57 58 59 61 60 59 60 64 64 66 68 71 69 60 72 64 61 65 72 82
32 36 38 40 50 68 75 74 71 69 67 70 63 64 65 65 64 64 61 60 60 61 61 62 64 66 66 64 63 63 68 70 72 72 73 72 75 63 65 68 69 78 81
35 37 40 42 47 50 53 61 72 75 75 78 73 71 71 71 70 68 66 65 63 63 66 67 68 70 71 70 68 68 73 74 74 74 76 76 67 63 63 64 70 73 78
37 33 39 42 42 47 52 54 58 62 68 77 81 81 80 78 74 75 75 73 71 71 71 72 75 75 78 76 73 73 75 75 75 75 74 65 60 55 57 67 70 73 83
42 43 42 42 44 47 51 55 60 59 62 66 72 80 84 84 84 81 83 77 78 76 76 76 77 79 81 79 79 77 74 71 68 61 58 60 52 56 60 64 72 84 88
54 51 48 44 43 47 52 59 62 65 63 61 61 65 69 74 76 76 81 79 79 77 75 74 74 77 78 78 75 67 56 54 50 54 58 55 53 56 60 70 85 87 94
59 56 54 52 49 46 45 50 57 65 64 56 58 60 62 63 53 64 65 68 69 65 61 44 40 39 46 52 47 48 49 51 52 56 53 49 55 63 69 86 94 86 94
66 62 60 57 57 52 47 48 55 62 64 57 56 61 58 61 60 60 52 62 56 44 32 32 5 15 29 38 50 56 52 61 62 64 53 56 61 65 84 98 93 100 106
69 69 64 63 61 57 56 54 51 51 50 55 59 59 55 53 53 49 57 70 39 35 24 20 27 36 53 63 60 66 57 68 70 68 67 74 72 79 86 104 107 108 105
71 71 74 70 66 62 59 61 58 49 51 62 63 53 47 41 45 46 40 49 46 35 33 33 28 35 35 57 84 70 71 78 78 74 76 81 80 85 95 108 111 106 105

GFSMW_250_spd_027.txt.gz
Wind_Speed
9 15 16 13 17 25 25 24 23 20 17 15 13 10 8 8 10 11 10 11 13 15 18 20 21 24 26 27 28 29 30 30 29 28 28 26 26 29 29 30 31 31 31
11 14 19 15 21 26 25 23 22 19 16 15 12 10 8 7 8 8 8 8 9 10 13 15 18 22 23 23 24 27 28 28 30 30 27 26 24 24 30 33 35 34 34
9 16 22 21 25 24 23 21 20 19 16 15 12 9 7 4 5 6 8 7 7 9 10 12 15 18 19 19 21 21 22 25 27 27 26 28 23 21 22 29 33 34 35
10 17 23 27 28 28 24 21 19 17 14 12 8 7 5 3 4 4 5 6 6 7 9 11 13 14 15 16 18 19 21 23 25 26 30 31 26 24 21 23 26 34 38
17 20 25 29 31 28 25 22 20 18 15 13 10 9 8 6 2 1 2 3 6 8 9 10 10 11 12 15 16 16 18 20 22 26 30 31 31 26 21 25 23 29 34
22 24 29 31 30 29 27 28 23 20 18 16 15 12 11 10 7 6 7 7 6 8 10 11 12 12 12 14 16 18 19 21 25 27 29 33 37 26 21 22 25 25 36
27 25 25 28 26 25 23 25 21 18 17 16 15 14 14 13 11 9 9 10 11 9 10 11 13 16 17 17 18 20 22 24 27 30 33 35 37 37 28 23 29 39 43
28 27 26 29 29 29 28 25 22 18 17 17 17 16 16 14 14 11 12 13 14 12 12 15 15 17 21 23 24 24 26 28 30 33 35 37 38 39 39 35 37 41 46
29 27 27 27 26 26 26 27 25 23 21 21 20 16 14 12 13 14 14 15 18 19 15 18 20 21 22 25 27 28 28 30 33 37 39 41 42 44 47 38 35 40 47
29 27 27 28 29 29 28 28 26 23 22 21 19 17 16 15 15 18 19 18 19 22 22 21 24 24 25 27 28 30 32 33 36 39 40 41 43 48 50 46 41 39 56
33 29 28 28 30 30 32 30 30 28 28 27 24 23 23 23 22 22 23 25 27 24 25 25 27 28 29 31 33 33 35 37 40 42 45 46 48 49 50 52 48 42 58
36 36 34 32 30 32 36 36 35 36 35 33 33 30 31 31 32 33 32 30 31 29 27 27 30 31 34 36 37 37 38 40 42 46 49 51 52 54 55 57 50 48 61
40 38 38 38 35 38 39 40 41 42 41 40 39 37 36 34 36 37 34 33 32 33 33 33 33 35 38 40 40 42 43 45 48 51 52 55 57 60 62 60 57 61 68
50 47 44 41 39 40 42 43 43 44 45 46 46 44 44 41 39 39 35 35 36 37 36 38 40 40 42 43 44 45 48 50 52 54 55 58 60 63 64 63 61 66 63
55 51 48 46 44 44 47 47 48 46 46 46 45 45 44 45 41 42 42 41 42 43 44 43 44 46 46 48 48 49 52 55 57 57 58 61 63 65 66 64 62 62 51
59 57 54 51 51 52 53 54 53 52 50 49 49 49 47 47 47 47 46 48 48 49 48 49 50 50 51 53 53 55 57 59 61 61 63 64 66 67 65 66 56 47 46
30 48 58 59 58 60 59 58 59 56 55 55 54 56 56 57 55 54 54 55 56 55 55 56 57 56 55 57 59 58 61 64 64 66 68 68 67 67 58 50 54 45 44
29 30 32 36 46 51 56 57 59 60 60 61 60 61 62 64 60 60 61 62 62 61 61 61 62 62 62 63 63 63 64 68 69 71 71 67 64 52 43 48 45 43 47
37 35 35 33 32 36 42 43 41 44 51 61 67 70 70 69 67 68 69 69 68 66 66 67 66 67 66 68 68 67 70 71 72 71 66 56 45 39 49 47 47 50 59
43 42 39 37 37 37 38 40 43 44 49 52 55 56 60 64 64 67 71 73 73 70 72 72 71 69 69 72 71 71 73 72 67 53 46 41 45 47 48 45 50 58 65
47 44 43 43 42 40 37 39 42 45 51 51 50 52 52 54 55 55 58 59 55 63 68 70 71 75 75 71 60 52 50 40 39 39 41 46 47 50 46 42 51 66 69
50 49 49 48 43 43 43 40 38 39 41 44 48 53 55 58 54 51 46 48 69 65 55 54 56 61 61 49 44 35 28 22 31 41 44 47 45 43 43 49 59 64 69
53 52 49 48 47 48 48 47 46 46 45 42 44 47 52 56 56 54 48 46 43 47 63 69 53 42 42 44 38 32 27 41 41 51 48 49 54 42 48 63 59 65 67
57 57 56 54 52 53 51 51 52 52 49 46 48 50 55 57 57 60 48 51 50 52 49 56 57 44 33 35 28 40 50 56 56 53 41 40 49 59 67 63 63 70 70
64 63 63 61 60 60 60 59 58 59 56 53 52 53 58 60 56 57 57 49 48 55 55 49 59 52 31 35 44 45 44 43 56 58 53 60 58 65 75 74 72 66 70
72 70 68 69 68 67 67 66 64 62 61 59 56 57 60 60 60 58 60 55 52 51 64 61 56 40 32 30 22 30 28 11 25 55 56 64 65 64 73 70 75 73 78

GFSMW_250_spd_033.txt.gz
Wind_Speed
21 19 17 16 10 19 24 24 25 24 21 19 16 13 12 12 12 14 14 14 14 16 18 19 20 20 20 21 21 21 23 26 27 28 32 22 17 19 20 22 22 32 37
22 20 20 17 14 18 24 22 24 25 22 18 16 14 12 11 10 10 11 10 10 12 14 15 17 15 16 15 16 18 22 24 24 26 30 31 22 20 23 23 25 29 29
21 22 23 19 19 21 25 24 23 24 21 18 16 13 12 10 9 8 7 8 8 8 9 11 12 12 12 13 16 18 19 19 21 23 25 27 28 30 26 29 28 25 30
21 24 23 24 19 23 26 26 25 24 22 18 16 14 11 8 6 6 5 6 7 5 4 7 8 7 9 11 13 16 17 18 19 21 23 25 26 28 32 33 32 33 29
18 22 20 25 24 29 29 28 26 26 23 19 17 14 11 9 6 5 5 4 5 4 4 4 5 8 9 11 13 13 13 15 17 19 21 24 26 27 28 32 33 31 28
15 22 22 27 29 33 33 33 29 29 27 24 18 14 11 8 6 4 4 2 1 1 3 4 5 7 10 11 11 12 14 15 16 19 22 24 26 27 27 31 33 34 35
17 20 26 21 31 35 37 35 32 30 28 24 19 15 12 11 10 9 7 6 6 5 4 4 5 6 8 10 11 12 14 16 18 19 21 24 27 27 27 32 37 38 39
21 22 24 30 34 36 36 32 30 29 27 24 21 19 18 16 15 13 12 13 11 9 9 8 10 9 10 10 12 14 15 17 19 22 23 25 29 30 29 30 36 40 40
24 24 27 31 34 41 39 36 32 29 26 25 26 26 23 20 17 16 16 15 13 12 10 11 14 15 15 16 18 20 20 21 22 24 25 26 28 31 34 37 40 42 44
28 24 30 32 37 43 40 38 35 32 30 30 29 25 24 22 19 18 16 14 14 15 13 14 17 18 19 18 20 24 25 26 29 30 32 32 34 35 37 37 40 46 47
32 27 29 32 37 40 40 41 40 38 36 33 30 28 27 25 22 20 18 16 17 19 20 22 20 23 23 23 23 26 29 30 32 34 36 38 40 40 41 42 44 48 47
35 29 28 31 34 39 40 40 40 40 37 36 36 32 29 27 24 23 22 20 21 25 24 20 23 27 28 27 25 27 31 33 35 37 39 40 42 43 46 45 44 47 42
40 35 31 32 36 39 39 38 39 40 39 39 40 37 31 29 27 27 25 24 24 26 28 30 31 30 32 31 30 32 35 37 39 40 41 43 45 45 49 51 52 50 33
46 43 37 35 38 38 40 38 36 35 37 38 39 37 35 33 32 33 33 32 33 34 36 37 37 35 34 37 37 38 40 43 45 46 46 48 49 50 51 52 54 46 34
52 48 44 41 41 41 39 39 39 39 38 38 38 40 39 36 36 36 37 37 40 40 41 41 39 39 39 41 42 45 46 48 49 50 51 53 54 54 54 51 51 41 30
58 53 48 46 42 43 45 43 42 41 38 40 40 40 39 40 41 40 41 43 44 43 42 43 43 44 46 48 49 50 51 51 53 55 54 55 55 53 53 49 43 36 27
59 57 54 51 48 46 44 44 44 42 43 43 41 40 43 43 43 43 43 44 46 45 46 47 50 52 53 54 57 58 58 58 58 56 56 52 51 48 45 39 30 26 29
52 61 60 58 55 54 50 51 48 47 47 44 44 44 43 45 45 45 47 47 48 51 51 54 57 59 60 58 57 58 57 58 57 52 48 47 46 40 28 21 24 32 38
41 45 56 61 60 59 58 55 53 53 52 52 51 51 49 48 49 50 50 51 53 54 56 56 51 48 47 46 48 47 46 44 41 45 44 37 35 33 22 15 25 35 33
41 39 38 40 51 62 64 62 62 60 58 58 55 53 52 53 54 55 55 56 55 49 43 42 40 39 40 41 44 48 45 44 47 51 48 37 32 32 17 19 26 21 24
43 41 39 37 40 42 47 55 61 62 62 55 51 50 50 51 48 44 42 38 36 35 35 36 36 39 40 39 39 44 48 50 51 47 44 39 35 31 22 21 25 34 31
45 42 42 42 40 38 37 41 45 49 48 52 49 46 42 39 37 36 36 34 36 36 38 39 40 43 45 44 45 49 50 51 51 52 46 40 39 36 30 22 26 25 27
48 44 44 44 43 44 44 45 46 44 44 43 42 41 40 38 37 38 37 37 40 42 43 42 45 47 50 50 54 54 51 54 54 56 52 44 39 37 28 27 25 27 39
55 51 49 49 49 49 49 48 47 48 47 47 45 44 43 43 43 42 42 43 44 44 47 47 50 50 53 55 59 59 61 60 56 59 46 38 36 37 29 25 31 34 38
62 58 55 53 53 54 53 55 55 54 54 53 50 51 51 50 50 49 46 44 47 50 51 53 52 55 58 59 61 64 65 67 62 58 58 49 36 40 34 35 44 45 45
68 63 61 59 58 57 56 56 57 58 60 60 58 57 58 57 55 54 51 52 55 54 56 57 57 59 60 61 62 64 67 66 62 57 53 46 40 35 31 35 33 42 37

GFSMW_250_spd_036.txt.gz
Wind_Speed
12 20 16 16 13 16 21 23 22 20 19 18 16 14 12 14 14 15 15 15 15 14 17 18 18 18 19 19 20 22 24 25 27 31 31 27 28 29 31 36 28 28 27
14 21 18 17 13 14 23 22 22 22 21 17 15 13 13 13 13 11 11 11 13 13 12 15 14 16 16 16 17 18 20 21 23 25 25 23 28 32 34 37 35 28 24
15 21 20 18 20 16 23 24 23 23 21 18 15 13 12 12 11 9 8 9 10 10 10 10 11 11 13 14 14 15 16 17 20 22 24 24 25 29 30 31 24 25 26
15 20 22 17 20 17 28 26 26 25 22 18 16 14 13 10 9 8 8 7 8 8 7 6 7 8 10 11 12 12 14 15 17 18 21 23 24 24 27 30 32 34 32
11 20 23 20 21 22 29 30 27 26 24 21 17 15 12 10 10 9 8 8 7 7 7 7 6 8 10 10 11 13 14 14 14 16 19 21 21 23 26 28 31 34 30
14 16 23 25 24 24 31 34 33 29 27 25 21 18 15 12 10 9 7 6 4 3 3 4 4 6 7 8 10 12 15 16 16 16 17 20 21 23 25 28 32 35 32
18 20 23 28 26 27 30 37 35 32 30 27 23 20 17 15 12 9 7 6 5 3 2 2 3 5 7 10 11 14 16 18 19 20 21 20 21 22 25 27 31 35 34
24 22 23 27 27 26 30 36 36 33 31 28 24 21 18 17 15 14 14 12 9 7 6 5 6 8 9 10 12 13 14 16 18 20 21 23 25 26 26 28 30 32 35
28 25 21 23 30 28 35 39 38 33 33 31 29 25 24 21 18 17 14 13 12 11 10 9 9 10 11 13 14 14 16 17 20 21 23 24 25 27 29 30 34 36 39
33 27 24 23 30 32 37 42 41 37 34 30 31 33 28 24 23 20 18 17 16 14 10 10 12 11 12 17 19 21 21 21 23 25 27 27 28 29 31 33 36 39 40
38 32 27 24 25 31 37 45 45 41 38 38 36 33 31 30 26 22 21 20 19 15 12 14 16 15 17 21 23 24 24 26 28 30 31 33 34 35 36 37 38 41 42
42 38 31 25 23 31 37 45 46 44 42 38 37 36 36 31 26 24 23 21 20 17 15 17 19 19 25 26 26 25 26 30 31 33 35 38 39 39 41 39 41 42 42
47 43 35 30 28 32 38 46 49 47 45 41 40 39 35 29 24 24 24 23 23 22 23 25 24 26 29 32 32 31 30 32 36 38 40 43 43 44 47 47 45 46 44
49 47 41 37 32 34 37 45 47 45 44 41 41 40 36 31 31 30 26 27 29 29 29 29 30 32 35 36 35 35 37 39 42 46 48 50 51 53 54 54 52 52 42
53 50 48 42 37 37 39 43 45 45 45 42 41 38 34 35 38 35 33 31 32 32 34 34 36 36 36 38 40 43 45 48 51 52 54 57 58 58 57 54 53 42 32
59 53 49 46 43 41 42 43 44 45 44 43 43 40 39 40 40 37 36 37 35 35 38 39 40 42 43 45 46 50 51 54 57 58 58 55 53 50 45 44 36 29 14
56 59 54 52 48 45 45 45 45 44 46 47 46 42 37 37 36 36 36 37 38 40 41 42 44 45 47 48 51 54 59 59 55 50 49 48 45 40 39 36 29 20 12
46 55 56 53 49 47 44 47 46 46 47 46 43 41 38 37 37 36 38 40 41 43 44 44 47 48 50 52 55 52 47 48 49 49 46 45 43 43 40 35 23 15 18
33 43 51 56 54 50 48 45 44 47 49 48 47 45 42 41 42 42 40 39 42 44 46 47 49 52 54 47 41 36 34 36 42 41 43 43 45 48 39 35 24 18 19
34 31 32 41 52 55 53 53 50 51 49 52 51 47 46 47 47 47 45 45 46 46 47 49 49 43 40 37 34 35 34 35 32 41 42 43 47 51 43 34 30 24 20
42 41 40 36 38 43 50 53 56 55 57 55 51 50 50 52 52 50 50 51 50 47 51 44 40 38 36 35 37 39 36 34 39 46 47 44 45 44 46 41 31 30 23
49 48 45 43 41 37 34 34 39 49 58 57 58 58 57 57 58 57 54 55 53 43 38 37 36 34 37 42 44 44 42 42 44 49 48 44 43 41 45 42 39 35 25
51 55 51 47 43 42 39 36 34 32 35 39 46 50 55 58 54 51 46 39 34 35 37 35 34 38 40 41 45 47 49 50 51 54 54 48 47 38 39 46 38 36 29
54 54 54 50 49 47 45 44 41 38 36 36 35 37 40 41 42 42 40 38 36 37 38 38 39 40 43 46 48 49 53 55 56 55 57 57 56 51 42 41 43 38 30
60 59 56 52 50 50 48 49 48 47 45 44 43 44 45 46 47 47 46 43 43 41 42 43 44 47 48 50 52 53 53 56 59 60 61 58 55 56 55 43 43 40 38
66 64 60 56 53 51 49 50 51 49 47 48 49 50 51 51 51 48 47 48 49 48 49 49 52 53 53 55 57 57 57 57 58 63 65 60 51 50 50 46 42 33 36

GFSMW_250_spd_039.txt.gz
Wind_Speed
8 10 13 14 12 14 20 21 22 21 20 20 17 17 16 17 16 16 16 17 16 15 14 15 15 17 19 20 20 22 25 25 23 23 27 30 30 30 28 26 28 23 22
7 10 18 17 12 14 21 23 24 22 20 19 16 14 15 14 13 12 11 12 13 12 12 12 14 14 15 17 18 20 21 20 22 24 23 24 27 28 25 28 23 23 18
11 10 19 20 16 14 20 24 26 24 22 19 16 14 14 13 13 11 9 10 10 10 9 8 9 12 12 13 15 16 17 16 19 20 21 21 24 24 22 29 30 23 17
17 12 17 23 21 14 19 27 29 26 24 20 18 16 14 13 13 11 9 9 9 8 6 6 9 10 10 12 14 15 15 15 15 16 17 18 19 20 22 21 23 22 11
20 15 17 21 23 20 16 30 32 30 28 24 21 18 16 15 14 13 11 12 10 8 7 6 7 8 8 10 13 15 15 15 15 15 14 16 16 19 22 25 26 27 8
19 17 21 25 24 24 22 28 34 32 31 28 24 22 21 19 17 16 14 14 11 9 7 4 5 5 6 8 9 11 13 14 15 15 15 14 15 16 19 22 27 29 27
26 25 19 24 24 26 22 21 34 34 33 31 28 25 24 22 19 17 15 13 11 7 5 3 1 2 3 5 7 8 9 9 11 14 15 15 16 19 21 23 24 29 30
29 27 23 20 23 28 28 23 35 38 35 32 29 26 25 23 21 19 17 14 11 8 7 5 4 4 7 10 12 13 13 11 10 14 17 19 20 21 24 28 30 31 31
35 30 26 22 18 28 31 26 33 41 37 33 32 30 28 25 23 21 18 15 13 12 10 8 6 5 5 6 9 12 15 16 15 18 21 22 24 26 27 28 28 30 33
39 36 29 25 22 27 31 32 34 44 40 38 35 32 31 27 24 21 19 17 16 14 12 10 10 7 7 6 11 15 18 18 19 22 25 26 28 31 33 33 35 38 39
43 40 35 28 23 21 32 35 35 45 47 44 40 36 34 31 28 22 21 20 17 15 13 14 12 11 12 12 15 19 23 24 24 26 29 31 35 37 40 41 42 45 44
49 45 40 33 27 25 29 35 38 46 48 44 41 39 38 35 29 26 23 22 19 18 17 17 18 19 18 20 22 25 28 28 29 31 35 38 42 45 47 48 50 50 48
53 50 45 39 34 30 29 33 35 44 49 46 46 43 41 36 30 27 25 23 23 22 23 22 23 24 24 26 28 31 34 34 36 38 40 44 47 50 52 52 51 48 45
55 52 49 44 40 34 30 33 33 39 47 49 47 44 41 36 31 30 29 26 26 26 28 28 29 29 29 32 34 36 39 38 41 44 47 51 53 53 51 46 43 37 40
53 54 51 47 42 38 35 34 36 38 46 50 48 45 41 36 34 32 30 30 28 29 29 31 33 33 35 36 38 39 40 42 46 49 52 50 45 43 42 40 33 34 37
52 53 52 49 46 42 39 35 39 42 45 50 50 45 42 39 38 35 34 35 35 36 34 35 35 36 36 37 39 40 43 47 48 51 44 40 38 38 38 36 32 32 35
49 50 53 50 48 47 44 38 36 40 45 49 49 48 44 42 40 38 37 38 36 38 39 39 37 37 36 37 40 43 46 50 46 34 37 31 35 36 36 33 31 34 27
37 44 49 51 48 46 44 40 35 37 44 48 48 48 45 43 40 39 36 37 38 39 38 38 37 37 37 40 42 45 49 44 35 32 28 33 35 36 34 36 35 31 27
28 31 39 45 51 47 43 38 35 34 39 46 49 47 43 41 40 39 38 39 38 39 37 36 36 38 41 41 43 48 39 33 30 29 28 31 37 39 38 37 36 32 28
35 30 32 41 51 54 51 46 43 41 40 44 47 44 41 39 39 40 42 40 40 41 41 41 42 43 44 45 47 38 33 28 27 29 34 35 39 39 40 38 43 41 33
41 37 31 35 44 52 55 52 49 48 48 45 40 38 39 42 42 42 44 43 43 43 44 46 46 49 44 44 39 33 33 26 28 32 36 40 41 41 43 41 41 44 41
43 40 37 34 31 36 47 54 55 55 53 50 45 45 46 46 45 46 47 47 46 48 48 48 48 45 41 38 37 35 30 28 31 35 38 42 45 45 45 45 42 41 45
52 50 44 40 37 34 36 36 40 51 54 54 54 53 52 50 49 50 50 51 50 51 52 41 38 38 37 38 37 36 34 33 35 40 44 43 45 47 50 49 47 42 37
56 55 56 51 45 43 44 45 42 40 42 45 51 54 53 52 53 52 52 51 48 44 37 37 38 38 39 39 40 40 40 40 43 44 47 48 49 53 55 56 47 40 39
61 61 59 56 54 51 55 51 47 45 43 41 42 43 43 44 46 43 41 40 40 40 40 40 41 41 41 42 42 42 45 48 51 51 51 53 55 56 59 57 46 36 31
60 60 59 57 55 52 58 58 54 51 49 47 46 45 41 40 41 42 40 42 43 43 42 43 44 45 45 46 45 48 49 52 54 55 58 58 59 60 59 57 48 42 36

GFSMW_250_spd_042.txt.gz
Wind_Speed
3 6 6 14 14 13 12 18 22 23 23 20 20 20 21 22 21 18 17 16 15 13 12 14 15 16 19 20 21 20 22 21 21 22 24 22 20 24 23 21 14 19 25
12 5 16 12 15 15 13 21 24 25 25 23 22 21 20 20 19 17 17 15 14 12 10 10 12 14 15 16 17 16 18 20 18 20 21 21 11 6 17 23 15 12 18
11 9 17 17 15 17 14 22 24 27 26 24 22 21 19 18 17 16 14 15 12 11 9 7 8 10 14 15 14 14 14 14 15 17 16 18 19 15 19 23 21 12 13
15 10 10 20 19 20 17 25 26 27 28 27 25 22 22 19 16 14 13 13 12 10 7 7 7 9 12 15 14 14 13 13 11 11 12 12 14 17 16 18 23 23 16
22 12 14 22 25 21 19 25 27 29 28 27 26 24 22 21 19 16 14 14 14 10 10 8 7 8 9 10 11 11 10 8 6 6 7 11 15 19 22 24 25 25 25
31 20 18 24 27 25 21 23 29 31 30 29 26 25 25 22 20 18 15 15 13 12 11 8 5 4 4 4 6 5 6 7 9 10 11 12 13 15 18 20 23 26 28
29 26 21 24 29 27 26 19 26 29 32 31 28 26 25 23 22 20 18 18 15 12 9 8 6 3 1 3 6 8 9 10 11 14 16 16 16 18 20 23 26 29 31
30 30 25 26 27 30 26 25 22 29 35 33 30 28 25 24 23 22 20 18 15 13 10 8 6 5 5 6 6 7 8 12 14 16 20 22 23 25 28 29 33 35 35
37 34 32 32 25 29 30 25 23 28 37 36 34 31 28 26 25 24 21 18 17 14 12 11 9 9 9 9 8 7 9 14 19 21 24 26 29 33 34 36 39 39 38
42 40 39 34 26 25 28 32 29 29 37 39 39 35 29 28 27 25 22 21 19 17 15 14 14 13 12 13 11 10 10 15 22 24 24 27 32 35 40 43 45 45 44
48 47 43 37 31 28 24 33 33 32 41 45 44 39 35 32 31 28 24 21 20 17 16 16 17 16 15 13 16 16 18 22 26 28 28 32 36 40 43 46 48 47 43
43 50 46 41 37 32 26 34 37 37 39 42 45 42 39 37 35 31 26 23 22 21 19 21 22 22 22 22 20 20 22 25 30 33 34 37 42 46 49 47 37 36 33
46 49 50 47 42 36 33 31 40 37 39 42 46 46 44 40 39 35 30 27 25 23 24 25 25 26 26 26 25 25 27 32 34 35 38 42 47 46 37 33 32 31 27
50 45 54 51 47 44 38 33 31 36 41 44 46 48 47 44 43 39 34 32 30 27 27 27 25 28 28 29 28 29 32 34 35 37 41 45 41 36 34 36 34 30 26
48 47 48 56 54 48 43 37 31 35 39 43 46 48 48 47 44 40 37 35 32 31 29 27 27 29 31 32 33 33 33 35 36 39 43 42 31 29 32 37 35 31 28
45 49 46 54 55 51 46 42 36 33 40 42 45 48 49 48 46 43 39 37 34 33 32 30 29 30 31 31 31 34 34 34 37 40 42 30 31 29 30 32 33 35 35
42 45 45 47 57 54 51 45 42 36 33 38 42 46 49 50 48 43 41 39 38 37 34 34 35 35 34 33 34 33 33 35 38 43 34 24 25 26 30 29 33 33 32
38 42 43 46 53 57 53 48 43 40 37 33 39 45 49 51 49 45 44 42 40 38 38 37 35 32 32 33 33 31 34 37 39 36 29 27 27 27 30 31 37 37 38
36 37 37 43 49 56 56 51 45 43 39 36 34 41 48 50 48 48 47 44 42 41 40 38 35 32 31 32 31 34 38 39 40 32 28 25 26 26 31 37 41 42 44
37 33 33 36 43 49 54 50 48 44 44 41 39 37 40 46 46 45 45 45 43 43 43 39 36 34 33 32 34 37 42 41 37 32 32 31 30 31 32 35 37 43 48
43 38 33 31 34 43 48 53 50 49 49 49 43 37 36 40 46 46 44 46 47 45 45 43 39 38 35 35 37 39 39 39 34 34 31 29 31 33 33 37 42 46 50
46 46 41 34 31 37 47 51 55 54 52 47 43 39 38 37 39 42 46 48 47 46 45 44 43 41 38 39 41 39 38 33 37 33 32 34 35 36 37 41 46 49 50
50 44 45 43 36 35 41 50 55 58 57 54 50 47 45 44 44 43 44 42 42 43 44 44 45 45 42 44 40 37 34 33 34 33 35 36 39 40 45 49 50 52 52
57 54 49 47 45 41 39 39 40 48 55 57 55 54 53 52 51 50 49 48 49 50 50 50 49 49 51 48 44 39 35 33 33 34 37 39 39 43 44 47 51 53 53
59 59 57 53 50 49 47 45 42 38 38 37 41 48 56 58 59 57 56 56 56 55 55 56 56 55 52 49 43 36 37 37 36 38 41 42 42 43 45 47 50 50 49
64 62 61 60 59 57 54 52 48 44 43 43 42 41 41 45 51 54 56 58 60 60 61 61 59 54 49 41 37 39 41 41 42 43 44 45 45 45 48 49 49 49 53

GFSMW_250_spd_045.txt.gz
Wind_Speed
12 11 6 13 11 10 15 15 18 20 20 21 21 22 24 24 21 20 18 16 15 15 14 15 15 14 15 14 17 20 19 21 21 21 22 19 12 23 24 16 17 19 22
17 7 14 15 12 15 17 15 19 23 23 22 22 23 23 22 20 17 16 16 12 12 12 12 10 11 11 11 12 15 16 18 18 17 19 20 18 18 21 21 19 16 17
12 12 9 14 15 14 16 19 19 24 24 23 22 22 21 20 16 15 16 14 12 10 10 8 7 10 10 10 9 12 12 13 12 13 15 15 17 17 20 21 22 25 25
11 14 14 12 17 16 19 23 22 24 24 25 24 23 21 19 17 15 14 13 12 10 8 7 8 9 10 9 8 8 9 9 10 12 14 16 17 18 20 21 24 27 27
17 18 15 8 15 18 20 25 24 26 27 26 25 23 22 20 19 17 16 15 14 11 9 8 7 8 7 7 5 6 7 8 10 13 15 16 15 18 20 24 26 30 30
22 21 26 20 17 22 21 26 27 27 30 30 27 24 24 23 20 18 16 16 16 12 11 9 9 7 5 4 2 2 5 8 10 14 18 22 22 24 25 28 30 32 32
29 26 19 21 20 26 25 26 27 28 31 31 29 27 25 23 21 20 17 17 15 14 13 11 9 7 3 3 4 5 7 8 12 17 19 22 24 26 28 30 33 35 37
30 31 25 24 27 24 31 28 29 27 30 31 30 30 28 24 22 21 18 17 16 15 14 11 9 7 7 8 8 10 9 10 14 21 22 22 23 27 31 35 38 41 43
34 34 32 28 30 26 31 31 31 27 31 33 33 32 29 26 23 21 20 20 20 18 15 13 12 10 11 10 11 11 10 11 15 23 26 26 28 32 38 42 46 45 41
36 36 38 33 33 29 26 32 34 32 29 32 33 34 31 28 27 25 23 23 22 20 19 17 15 15 16 14 13 15 12 15 19 26 31 32 33 38 42 46 44 41 38
39 40 44 38 36 31 27 30 35 36 35 35 32 37 36 33 30 28 28 26 24 22 21 21 20 20 21 20 19 14 17 20 22 29 34 34 36 42 48 43 40 39 39
39 38 41 42 39 36 31 31 33 41 39 37 34 35 38 36 34 32 31 29 26 26 25 22 22 22 21 22 21 19 21 22 25 31 33 34 37 43 42 39 35 40 40
41 39 39 41 43 42 37 34 33 37 44 39 36 34 38 41 38 35 33 32 29 27 27 25 25 24 23 23 23 23 24 25 30 33 33 35 40 44 36 34 31 36 35
47 43 40 44 47 45 43 38 36 34 41 41 41 38 38 43 43 38 36 35 33 31 29 27 26 26 25 24 26 26 27 29 31 32 32 34 40 38 31 30 32 32 32
45 40 39 43 45 48 48 45 39 38 35 43 42 41 39 41 44 43 39 38 38 35 33 31 28 27 26 25 24 26 27 28 30 31 31 35 37 32 30 32 23 28 32
50 44 40 41 44 48 53 51 47 41 36 36 45 42 43 44 45 44 43 43 41 40 37 34 31 30 28 26 28 30 30 29 30 30 29 34 30 28 27 26 28 29 32
52 45 42 44 44 48 55 57 51 45 42 38 33 41 44 47 46 44 45 45 44 42 40 37 34 32 32 32 29 29 29 29 29 29 32 34 29 27 24 23 23 23 28
50 44 42 43 44 45 49 58 54 50 44 40 36 33 43 46 47 47 48 46 46 43 42 40 37 36 34 31 31 29 29 27 28 30 33 32 27 27 26 26 23 23 25
49 46 45 45 44 44 47 52 56 52 47 43 41 38 35 39 45 49 50 48 44 42 42 41 40 39 35 33 31 30 30 29 32 35 36 34 28 28 31 27 25 29 31
49 47 44 43 42 44 45 48 53 55 50 49 48 44 37 33 38 42 47 48 47 46 45 45 44 42 36 34 34 32 32 31 33 36 37 36 30 32 32 29 28 32 33
50 50 46 41 41 41 45 49 51 57 59 55 50 45 41 38 35 35 39 47 49 49 49 49 47 45 39 36 37 35 36 35 37 39 40 39 30 32 33 34 32 32 33
52 52 49 43 40 40 42 46 51 56 57 55 52 50 48 46 42 37 38 43 47 49 49 50 50 46 41 39 39 38 39 39 42 43 43 39 32 32 34 34 33 34 36
57 56 53 47 42 41 39 43 50 55 57 57 56 53 50 47 43 40 37 40 44 49 51 51 49 47 45 42 41 41 42 45 46 48 46 37 33 33 36 36 36 35 36
61 59 57 54 49 46 44 41 42 51 54 57 56 52 50 49 45 46 43 40 41 45 46 48 49 46 46 44 44 46 48 50 50 51 46 39 35 37 40 38 38 38 39
63 62 59 57 54 50 46 44 44 42 44 51 56 57 56 54 52 49 48 47 46 46 45 46 46 46 47 49 50 52 53 55 55 47 43 40 38 42 42 41 41 41 42
65 65 63 60 57 54 53 49 45 45 42 40 43 48 54 57 58 56 54 53 53 54 54 54 53 53 55 56 57 57 58 59 52 42 40 40 42 42 43 42 43 45 44

GFSMW_250_spd_048.txt.gz
Wind_Speed
8 8 9 8 9 10 12 13 15 17 15 18 17 18 22 20 19 16 14 15 16 16 15 16 15 16 20 19 18 20 21 19 16 20 20 22 24 25 25 26 27 29 28
8 5 8 6 11 11 14 15 17 17 17 18 19 20 21 18 18 14 12 11 12 11 10 11 12 13 14 15 15 15 16 16 17 18 20 21 22 24 25 26 26 26 28
5 1 7 5 12 13 13 16 17 18 18 19 19 20 19 16 16 13 11 10 9 9 7 10 10 10 10 11 12 11 13 15 17 19 21 23 24 25 26 27 27 27 27
7 4 6 7 11 12 15 18 20 20 21 19 19 21 21 19 15 13 11 9 8 6 5 7 9 10 9 8 9 9 10 12 15 19 21 24 25 25 24 25 28 30 31
14 6 9 4 7 11 17 18 19 21 24 21 21 22 21 20 17 15 14 11 8 5 4 5 6 6 6 5 4 4 7 11 16 19 20 20 22 23 24 28 31 33 34
18 16 10 14 11 12 19 22 23 23 24 24 25 23 22 20 18 15 14 12 10 7 4 4 5 4 2 1 3 5 8 12 15 19 21 19 19 22 26 31 35 39 39
22 20 19 12 16 20 22 24 25 26 26 26 25 24 23 21 18 16 13 11 11 10 9 6 6 5 4 5 7 9 10 10 13 20 23 27 26 27 31 35 41 39 36
24 21 20 17 17 20 23 28 27 27 28 28 27 25 24 21 20 20 17 14 13 12 13 11 10 10 8 8 9 10 7 10 13 20 24 29 31 33 36 41 38 37 36
31 27 26 22 19 21 21 25 32 28 30 29 27 28 28 25 22 22 20 18 17 17 16 14 13 13 12 11 10 11 6 9 14 20 26 31 34 35 39 43 39 33 36
32 29 27 26 24 23 23 24 30 34 31 30 30 30 28 25 26 26 23 22 22 20 19 18 17 15 15 15 14 13 14 13 16 22 27 33 33 36 40 40 36 33 37
32 33 31 30 28 25 27 27 26 34 33 34 32 28 31 29 30 27 27 27 25 23 23 22 19 18 17 17 18 18 17 17 21 23 28 33 33 36 40 37 36 38 35
36 34 32 30 31 29 29 30 27 31 35 35 31 31 30 34 33 32 29 29 27 27 27 25 22 21 20 18 17 19 20 20 23 26 31 32 33 35 40 33 34 31 28
37 36 33 31 31 31 32 33 31 31 36 35 34 33 36 35 35 36 33 31 31 32 30 27 24 22 20 19 18 19 21 22 25 27 29 31 31 32 36 31 28 30 32
41 38 34 36 35 34 35 36 36 32 33 37 37 37 40 38 36 38 38 34 34 34 34 31 27 24 19 20 20 20 20 21 22 25 28 30 29 32 34 27 26 31 30
44 41 39 40 42 40 39 40 40 39 36 34 32 37 41 39 38 39 42 41 39 36 36 35 31 27 22 21 22 21 22 22 25 28 28 29 27 32 33 24 24 21 24
47 42 41 43 42 44 42 43 44 44 41 36 34 30 35 41 43 43 42 43 43 40 40 39 36 31 28 26 25 24 24 27 27 26 27 25 27 31 32 22 20 20 22
49 44 44 46 42 41 44 45 47 48 46 41 36 34 33 39 42 42 43 43 43 43 43 42 40 36 33 30 28 27 29 27 27 26 24 24 27 32 32 26 23 22 21
51 48 48 48 46 43 40 41 46 50 51 46 44 41 39 36 37 44 45 45 45 44 45 43 42 40 36 34 32 32 30 29 28 26 26 25 26 29 32 28 25 23 22
54 51 50 50 46 47 44 43 45 48 51 52 49 46 46 42 38 36 41 44 46 46 45 43 43 41 39 37 36 34 33 31 30 29 30 30 28 29 31 30 29 24 26
55 53 52 50 49 49 47 45 46 50 51 55 56 52 49 47 42 35 33 36 41 47 47 46 44 41 40 39 38 37 37 35 34 33 34 33 33 32 33 31 29 31 27
56 56 53 51 50 50 48 45 44 48 51 52 56 56 53 50 46 40 34 33 37 39 45 47 47 46 44 42 42 41 42 41 39 37 38 38 38 37 36 33 29 30 26
56 55 53 53 51 49 47 46 45 47 45 48 51 57 56 52 48 44 41 38 37 40 43 45 47 47 49 48 46 44 45 45 44 42 40 41 41 40 40 38 34 30 28
57 55 55 55 52 47 47 46 45 44 45 48 52 53 53 54 52 50 47 44 42 41 42 44 47 49 50 50 50 48 46 47 47 44 43 44 43 43 44 44 37 33 31
57 58 58 58 53 49 49 49 47 44 44 46 49 51 51 53 55 53 51 50 49 46 42 42 44 45 50 51 48 46 47 47 45 44 46 47 46 48 47 45 39 36 36
59 59 60 60 55 53 53 52 49 46 45 45 46 50 53 53 54 56 55 55 54 52 53 50 46 44 43 43 43 45 46 45 44 45 49 52 52 50 50 45 40 39 39
65 62 62 62 58 57 56 54 50 48 46 43 41 43 46 49 51 55 56 55 55 54 52 50 47 45 45 45 44 44 45 46 48 50 53 54 56 55 51 43 41 42 42